{"data":{"norad_id":61220,"intl_designator":"2024-172A","name":"KINEIS-3C","alt_names":[],"object_type":"PAYLOAD","status":"ACTIVE","operator":null,"country":"FR","launch_date":"2024-09-20","launch_site_code":"RLLB","launch_vehicle":null,"mission":null,"orbit_class":"UNKNOWN","rcs_meters":null,"size_class":null,"mass_kg":null,"dimensions":null,"purposes":[],"wikipedia_slug":null,"has_3d_model":false,"image_url":null,"decayed_at":null,"tle_current":{"epoch":"2026-05-24T23:10:57.097632Z","epoch_age_seconds":84917,"freshness":"FRESH","line1":"1 61220U 24172A   26144.96593863  .00001597  00000+0  26049-3 0  9998","line2":"2 61220  98.0424 235.1102 0001384 162.1552 197.9704 14.72300665 89651","mean_motion":14.72300665,"eccentricity":0.0001384,"inclination_deg":98.0424,"raan_deg":235.1102,"arg_perigee_deg":162.1552,"mean_anomaly_deg":197.9704,"bstar":0.00026049,"rev_number":8965,"period_min":97.806109460665,"perigee_km":652.75983128076,"apogee_km":654.70625290842,"semimajor_km":7031.8700420946,"source":"CELESTRAK","updated_at":"2026-05-25T13:38:02.341824Z"}}}